Theta_e
333 334 336 337 337 337 338 338 338 337 338 337 337 337 336 336 336 336 336 336 335 336 336 336 335 335 334 334 333 332 332 331 330 331 331 331 332 332 332 332 331 331 331 331 331 332 333 333 331 330 330 330 330 330 330 330 328 329 330 329 329 329 328
332 335 338 335 334 336 337 336 337 337 337 337 337 336 336 336 336 336 336 336 335 334 335 335 334 334 334 333 333 332 331 331 331 331 330 331 332 333 333 332 332 332 331 330 330 329 330 332 332 331 330 330 330 331 330 330 329 330 330 329 329 328 328
334 337 338 335 334 335 336 336 337 337 337 337 337 337 336 337 337 336 336 336 335 334 334 333 332 333 333 333 332 332 332 331 331 331 329 330 332 334 333 331 332 332 330 330 331 329 330 331 331 331 331 330 331 331 330 329 329 330 330 328 328 328 328
336 337 338 337 335 334 335 336 337 336 335 336 337 337 337 337 337 336 336 335 335 334 333 333 333 333 333 333 333 332 332 331 331 330 329 330 333 333 330 330 332 332 331 331 331 331 331 331 330 331 330 330 331 331 331 331 330 330 329 328 328 328 328
335 336 336 336 335 334 333 334 336 336 334 334 336 337 337 337 337 336 336 335 334 333 333 333 333 333 333 333 333 332 332 331 331 331 330 331 332 331 330 330 332 332 331 330 331 332 331 331 330 331 331 330 330 331 331 331 331 329 328 328 329 329 328
333 333 334 334 334 334 334 334 336 336 334 333 334 336 337 336 336 336 335 335 334 332 332 333 333 334 333 332 332 332 332 331 331 331 332 331 330 330 331 332 331 330 330 330 331 332 331 329 329 331 331 330 330 331 330 331 331 330 329 328 328 328 327
331 332 333 333 333 334 334 334 335 334 335 333 331 334 336 335 335 335 334 334 334 333 333 333 333 334 334 332 332 332 332 332 331 330 331 331 330 330 332 333 332 331 330 331 331 332 330 329 329 331 331 330 330 330 329 330 331 331 329 328 328 328 327
329 330 331 332 332 332 332 333 333 333 334 334 333 334 335 335 336 336 334 334 335 334 333 334 334 333 334 333 332 333 332 332 331 330 331 331 331 331 332 332 332 331 331 331 331 332 331 330 331 332 332 331 331 330 330 330 331 331 329 328 329 328 327
326 328 329 331 332 332 332 332 333 333 333 334 334 335 334 334 335 335 335 335 335 334 333 334 334 333 334 334 333 333 333 332 332 331 332 333 332 331 331 332 332 331 331 331 332 333 333 332 332 332 331 331 331 331 331 330 330 330 329 328 328 327 327
325 326 327 328 330 331 332 332 332 332 333 333 334 335 334 333 332 333 334 334 333 333 334 334 334 333 334 333 333 333 333 333 332 332 332 333 333 332 331 332 332 331 331 332 333 333 332 331 331 331 331 331 330 330 331 331 330 330 329 329 328 326 326
324 324 325 326 328 330 331 332 332 332 332 332 333 333 333 332 332 333 333 333 332 333 334 334 333 333 333 333 333 334 334 333 332 332 332 332 332 332 332 331 331 331 332 333 333 332 331 330 330 331 331 331 331 330 331 331 330 330 328 328 327 326 326
322 322 323 324 326 328 330 331 332 331 332 332 332 332 332 332 331 331 332 333 332 331 333 334 333 332 333 333 333 333 334 333 333 333 332 331 332 332 331 331 331 332 333 332 331 330 330 330 330 331 330 331 332 331 331 331 331 329 327 327 327 325 326
320 320 321 322 324 326 328 330 331 331 331 331 332 331 331 331 331 331 331 332 331 331 333 333 332 332 332 332 332 332 333 333 333 333 333 332 332 331 331 331 332 333 332 332 331 330 330 331 331 331 330 331 331 330 329 330 330 329 327 328 327 325 326
318 318 319 320 322 324 326 328 329 330 331 331 331 331 331 331 331 330 330 331 331 331 333 333 332 332 332 331 331 331 332 333 333 332 332 332 332 332 331 331 332 333 331 332 332 331 331 331 332 332 332 332 331 329 329 329 330 329 328 327 326 326 326
317 317 317 318 319 321 322 324 326 328 330 330 330 330 330 330 330 330 330 330 330 331 332 332 331 331 331 331 330 331 332 333 332 332 332 332 332 332 332 333 333 331 331 332 332 331 332 332 332 333 332 332 331 330 329 329 330 330 328 327 326 325 325
316 316 316 316 317 318 319 321 324 327 329 329 330 329 328 328 328 329 329 329 329 331 331 331 330 331 331 330 330 331 333 333 333 332 332 332 332 332 333 333 333 331 331 332 331 331 332 332 331 331 331 330 331 331 330 328 328 329 329 329 327 325 325
315 315 315 315 315 315 317 319 321 324 327 328 328 328 328 326 326 327 329 329 330 331 331 330 331 330 330 330 330 332 332 332 332 332 332 332 332 332 332 331 331 331 331 332 331 332 332 332 331 331 331 330 330 331 330 327 327 328 328 328 327 325 326
314 314 314 314 314 313 314 316 318 321 325 328 328 327 327 326 325 326 328 329 329 329 329 330 330 329 329 330 330 329 331 332 333 333 333 332 332 331 331 331 330 330 331 331 332 331 331 331 331 330 330 331 331 331 329 327 327 327 327 328 325 324 326
313 313 313 313 313 312 312 313 315 318 321 325 326 326 325 325 325 326 328 329 329 329 329 330 330 328 328 329 329 329 330 331 332 333 333 332 332 331 331 331 330 329 329 330 331 331 331 331 331 331 330 330 330 330 328 328 327 326 327 327 324 323 325
312 312 313 312 312 312 311 311 313 315 317 320 322 323 323 325 326 327 328 329 329 329 329 330 329 328 328 328 329 330 329 327 330 333 333 333 332 332 332 332 331 330 329 329 329 330 330 331 331 331 330 330 330 330 328 327 326 326 326 327 325 322 323
312 312 312 312 311 311 310 309 310 312 314 316 317 319 320 322 324 327 328 328 329 328 328 329 328 328 328 328 329 329 327 327 331 333 333 333 333 332 331 331 331 331 331 330 329 330 330 330 330 329 329 329 329 328 328 327 326 326 326 326 326 322 320
311 311 311 311 311 310 310 308 308 309 310 311 313 315 317 318 320 324 326 326 327 327 327 327 327 326 327 328 328 328 328 330 333 333 332 333 332 331 331 331 332 331 331 331 331 331 331 329 330 330 329 328 327 327 329 329 327 326 326 326 326 324 320
311 310 310 310 310 310 309 308 308 307 308 309 309 311 313 314 315 318 322 324 326 326 326 325 326 326 326 327 328 328 327 329 331 331 332 332 332 331 331 332 333 332 331 331 331 331 330 330 330 330 329 328 327 328 329 329 327 326 326 326 326 325 321
310 310 310 309 309 309 309 308 307 307 307 307 307 308 309 310 310 312 317 321 323 324 323 323 324 325 326 326 327 327 327 327 328 330 332 332 332 332 332 332 333 332 331 331 331 330 331 331 330 330 330 329 328 328 328 328 327 325 325 326 326 325 322
309 309 309 309 309 308 308 308 307 306 306 306 306 306 307 307 307 308 311 315 317 318 318 319 321 322 324 325 325 327 327 327 327 329 330 331 330 331 331 331 332 332 331 331 331 331 330 330 330 330 329 329 329 329 328 327 326 325 326 326 324 324 324
308 308 308 308 308 308 307 307 307 306 306 305 304 305 305 306 305 305 307 309 311 312 312 314 316 317 320 322 325 327 328 327 327 328 328 328 329 330 331 331 331 332 331 330 330 330 330 329 329 329 329 329 329 328 328 327 326 326 327 326 325 324 325
307 307 307 307 307 307 307 307 306 306 306 305 304 303 304 304 304 304 304 304 306 307 308 309 311 313 315 318 321 325 327 328 327 328 327 327 327 329 330 331 331 331 331 330 329 330 330 329 328 327 327 327 327 328 328 327 326 326 326 327 327 327 326
306 306 306 306 307 306 306 306 306 306 306 305 305 304 303 303 303 302 302 302 302 304 304 305 307 310 313 316 319 322 324 326 327 328 328 326 327 328 329 330 331 331 331 330 329 329 329 328 327 326 327 327 326 326 326 325 325 325 326 327 328 326 325
305 306 306 306 306 306 306 306 306 305 306 306 305 304 304 303 302 302 302 301 300 301 301 301 304 307 310 313 316 318 320 321 324 327 328 327 326 326 327 328 330 330 329 328 329 329 328 328 327 327 327 326 323 322 323 323 324 325 325 325 325 325 325
305 305 305 305 305 305 305 305 305 305 305 305 305 305 304 304 303 302 301 300 300 299 299 299 301 304 307 309 312 314 316 318 322 325 327 326 325 325 326 327 327 327 327 327 328 328 328 327 326 326 326 324 320 319 320 321 322 323 324 324 324 324 325
304 304 304 304 304 304 304 305 305 305 305 305 305 305 305 304 304 303 302 301 300 299 298 298 300 302 304 306 309 311 312 314 318 322 325 326 325 324 324 325 326 326 326 326 327 327 327 327 326 325 325 323 320 317 315 315 317 319 320 321 321 321 320
304 304 304 304 303 304 304 304 304 304 304 304 304 304 304 304 304 303 302 301 300 299 298 297 298 300 302 304 306 309 310 312 314 317 321 324 325 323 320 322 325 325 325 326 327 327 326 325 325 324 323 322 320 316 313 312 313 314 314 315 314 314 314
303 303 303 303 303 303 303 303 303 303 303 303 303 303 303 303 303 303 303 302 301 300 298 297 297 298 301 302 304 306 307 309 311 313 315 318 318 315 314 316 319 321 322 324 325 325 326 324 323 323 322 321 319 315 312 312 312 312 312 312 311 311 310
302 302 302 302 302 302 302 302 302 303 303 302 302 302 302 302 302 302 302 302 301 300 299 298 297 297 298 300 302 303 304 305 307 308 310 311 311 309 310 312 313 313 316 319 321 323 324 323 321 321 322 320 317 314 313 312 311 312 312 311 310 310 309
302 302 302 302 302 301 301 302 302 302 302 302 302 302 301 301 301 301 301 301 301 300 300 299 297 296 296 297 299 301 302 303 304 306 307 307 306 306 307 309 309 308 309 312 315 316 317 318 318 319 319 317 314 312 312 312 311 312 311 311 310 309 309
301 301 301 301 301 301 301 300 301 301 301 301 301 301 301 301 300 300 300 300 300 300 299 298 298 297 296 296 296 297 298 300 301 303 303 302 300 300 301 304 305 305 306 308 309 311 312 314 314 314 314 314 312 311 312 312 312 312 312 311 310 309 308
301 301 301 300 300 301 300 299 299 300 300 300 301 301 300 300 300 300 299 299 299 299 298 297 297 297 297 296 296 296 296 297 297 298 298 297 297 296 297 300 302 303 304 306 307 308 308 309 309 309 310 310 310 311 312 312 312 311 310 310 309 308 307
Wind_Speed
11 13 13 15 15 13 12 13 14 14 14 15 16 16 16 16 17 16 15 17 18 18 16 17 17 18 19 20 23 26 27 28 26 25 23 19 16 18 20 20 15 9 8 7 7 5 1 3 8 11 14 17 17 17 16 13 12 10 10 10 10 11 10
12 12 12 13 14 13 14 14 13 13 13 14 16 16 16 16 17 16 16 17 19 19 17 18 18 16 17 20 23 25 27 29 27 26 25 21 18 15 15 17 15 12 12 10 8 6 4 5 5 5 11 15 15 16 18 15 12 10 11 11 11 12 12
11 10 10 11 13 14 15 14 13 13 13 14 16 16 16 17 17 17 17 17 18 18 18 17 17 16 18 20 22 25 26 27 25 26 26 21 17 15 15 16 16 14 12 10 9 9 9 8 6 5 10 14 12 14 19 19 14 12 13 12 13 13 13
11 10 11 11 12 13 14 14 13 14 14 14 15 16 16 17 18 17 17 17 17 18 17 17 16 16 18 19 21 25 27 26 23 23 25 21 14 15 18 17 15 15 14 11 11 13 11 8 6 6 10 16 13 12 17 19 17 16 16 15 15 14 13
14 12 11 11 12 13 15 16 14 14 14 14 15 16 17 17 17 18 18 18 19 19 18 17 16 17 17 17 19 24 26 25 23 20 20 21 18 16 17 16 15 16 17 15 13 13 13 12 9 6 7 12 11 10 15 17 17 18 18 17 16 15 15
14 14 14 13 12 12 14 15 14 13 14 14 15 17 17 17 17 19 19 19 21 20 19 18 17 16 17 17 18 21 24 23 23 21 18 19 20 18 15 14 16 16 17 17 14 12 13 13 11 7 5 7 6 8 14 16 16 16 19 20 17 16 17
13 14 14 14 13 13 14 15 15 15 14 15 17 18 18 17 18 20 21 20 20 19 19 18 17 17 17 18 18 19 22 22 22 22 20 18 19 18 15 13 15 17 16 16 16 15 15 15 12 8 6 5 5 7 9 14 15 14 18 23 19 17 18
14 14 13 14 14 14 15 15 16 17 15 16 17 18 18 17 17 19 19 18 19 18 17 17 18 18 17 18 18 18 20 21 21 22 20 18 17 18 18 16 16 17 18 18 18 17 16 17 15 11 7 5 5 7 8 12 15 14 19 21 19 18 17
14 14 14 15 16 15 15 16 17 18 17 16 17 17 18 19 18 19 19 19 20 19 19 20 20 20 19 19 18 18 20 21 21 21 18 15 16 17 17 17 17 18 18 18 18 17 16 16 14 11 10 8 6 6 7 8 8 12 18 17 16 20 19
14 14 15 16 17 17 17 18 18 19 19 18 17 16 18 21 21 20 22 23 22 20 20 22 23 21 21 21 19 18 19 19 19 19 17 15 15 16 15 17 19 18 15 15 17 17 16 16 15 13 12 11 10 7 5 6 5 9 15 15 16 20 19
14 14 15 16 17 17 18 19 18 18 19 19 19 17 17 20 23 22 21 23 24 24 24 24 24 23 21 20 19 18 18 19 18 17 18 17 15 14 15 17 18 16 15 17 19 17 16 17 18 17 15 14 15 12 6 5 6 9 12 15 17 18 17
15 15 15 16 17 17 18 19 19 19 19 19 19 19 17 20 24 25 24 23 25 26 26 23 22 22 22 20 19 18 17 18 18 17 17 17 16 14 15 16 16 16 16 18 18 18 18 18 18 19 19 16 15 13 9 6 4 8 14 17 17 16 17
16 16 17 18 18 17 18 19 20 21 20 19 20 20 20 21 23 26 27 26 25 26 26 25 22 20 19 19 18 18 18 18 18 17 16 16 16 16 17 18 16 16 17 16 16 17 18 17 17 19 19 17 15 14 14 10 4 6 14 17 15 14 18
16 17 18 19 18 17 18 19 20 22 22 21 20 19 21 23 24 26 27 27 25 24 25 24 21 20 19 19 19 18 17 18 17 16 15 16 17 17 18 18 16 18 18 16 15 16 16 17 18 18 17 15 15 17 18 14 8 5 9 14 15 15 18
17 18 19 19 19 19 20 20 20 22 22 22 21 19 22 25 26 26 24 23 22 20 20 20 21 22 21 21 22 20 16 16 17 17 16 17 17 17 17 15 16 18 18 17 18 17 17 18 18 18 17 16 14 16 19 16 11 8 7 12 17 16 17
19 20 21 20 21 22 21 21 21 22 22 24 23 22 24 26 26 24 20 19 18 16 16 17 19 22 22 21 23 20 16 16 16 17 17 17 17 17 16 15 16 19 19 19 19 18 18 19 18 18 18 19 17 14 19 20 14 11 10 11 16 17 17
20 21 22 21 22 23 23 22 22 22 23 25 24 22 23 26 26 23 19 17 16 14 15 15 16 20 22 22 22 19 17 17 17 17 17 17 18 18 17 17 17 19 21 20 20 19 19 18 18 18 18 19 17 14 19 22 17 14 11 9 14 19 18
21 22 22 22 23 25 25 24 23 24 24 25 23 22 24 27 25 21 18 16 14 15 16 16 16 21 23 23 22 21 19 18 17 17 17 17 19 18 17 17 18 19 19 19 19 19 19 19 19 19 18 17 16 14 18 20 20 20 15 10 16 17 14
22 22 22 23 23 25 27 26 25 24 25 24 23 22 24 25 23 18 14 11 12 13 14 15 16 21 25 24 24 23 20 18 17 16 16 16 18 18 17 17 18 18 18 19 20 18 19 20 18 18 18 16 14 14 16 18 21 23 17 13 17 18 17
22 23 23 23 23 24 26 27 26 25 25 24 23 24 26 25 18 12 9 10 12 12 12 14 15 20 24 23 21 21 18 17 16 15 15 16 16 16 17 18 18 18 18 20 20 19 19 20 18 18 17 12 12 12 14 19 23 23 20 17 16 17 19
22 23 23 22 23 23 25 27 28 26 26 25 25 25 27 27 21 12 9 10 10 11 13 14 16 19 21 21 21 21 19 16 15 15 15 16 16 16 17 18 18 17 17 19 19 18 19 19 18 17 12 8 11 14 14 18 19 19 19 15 11 14 17
23 23 23 23 24 24 25 26 27 27 27 26 26 26 26 27 26 20 16 14 10 9 11 14 17 18 18 20 22 20 17 15 14 14 15 16 17 18 18 17 16 16 16 17 17 16 16 17 15 13 10 11 14 15 14 16 15 14 13 11 10 15 15
23 23 24 24 24 24 25 26 27 26 27 27 26 27 26 27 27 23 21 19 13 7 6 8 13 16 18 21 20 18 17 16 16 16 15 15 16 17 17 15 14 15 15 15 17 17 17 16 13 13 13 14 17 19 17 15 16 16 14 12 12 14 15
23 23 24 24 24 24 24 25 26 25 26 27 26 27 27 28 29 26 22 20 16 9 6 7 9 13 17 19 17 16 19 18 15 15 14 15 16 15 16 15 13 14 15 16 17 18 18 16 14 13 14 16 18 21 19 16 18 19 16 13 13 13 15
23 23 24 24 24 24 24 25 26 26 26 27 26 26 26 27 28 28 23 20 18 15 12 11 10 11 14 16 15 16 17 17 16 16 15 16 16 15 15 15 13 12 15 17 16 16 18 18 15 13 14 15 15 17 18 18 19 21 18 15 15 16 15
22 23 23 23 23 24 24 25 26 26 26 26 26 25 25 25 26 27 26 24 21 19 19 16 14 14 15 15 15 17 18 17 16 18 18 17 16 15 14 14 13 12 13 15 15 15 16 18 18 16 15 15 14 15 17 18 20 21 20 17 15 16 14
22 23 23 23 23 23 24 25 25 25 25 26 27 26 25 25 25 25 26 26 24 21 22 22 21 19 18 16 16 17 19 19 18 19 20 19 17 15 13 12 13 13 13 14 16 16 15 16 17 18 16 15 15 16 16 17 19 20 19 15 13 13 12
22 22 22 23 23 23 24 24 24 24 25 25 26 26 25 24 24 25 25 26 26 24 23 25 25 22 19 18 17 17 19 20 20 19 19 20 19 16 12 11 11 12 13 14 15 16 16 14 14 15 16 15 14 15 15 16 19 21 18 13 11 13 15
22 22 22 22 23 23 23 24 24 24 24 24 24 25 25 24 23 23 24 26 28 28 27 27 27 24 21 19 18 18 17 18 18 18 18 19 20 17 12 10 9 11 13 13 13 15 16 14 13 14 17 15 12 13 14 15 18 22 19 13 11 14 16
22 22 22 22 23 23 23 23 23 23 23 23 23 24 24 24 23 21 22 25 28 31 33 32 30 27 23 21 19 18 16 15 16 17 17 18 17 14 10 9 12 13 13 11 11 14 16 15 13 15 16 14 10 10 13 14 16 18 18 16 15 16 17
21 21 22 22 22 22 22 22 22 22 22 22 22 22 22 23 23 22 22 24 26 30 34 34 33 31 26 22 20 18 15 15 15 15 16 17 14 9 7 7 9 11 11 11 12 15 18 16 13 12 15 14 10 10 11 13 14 15 15 14 14 15 15
21 21 22 22 22 22 22 22 22 22 22 21 22 22 21 21 22 22 23 23 23 27 32 33 34 35 30 25 21 18 15 14 15 15 15 15 9 1 1 4 4 5 6 9 13 15 17 17 12 10 13 14 12 12 12 12 13 13 13 12 11 10 10
20 21 21 22 22 22 21 22 22 22 22 22 22 22 21 21 21 21 23 24 22 25 30 31 33 36 33 28 24 19 15 14 14 14 12 7 2 6 4 3 1 0 2 9 13 13 17 19 13 10 13 14 12 13 14 13 14 14 14 14 13 12 12
19 20 21 21 22 22 22 22 22 22 22 22 22 23 23 22 22 21 22 24 23 25 28 29 31 35 34 30 26 20 16 14 12 12 11 7 7 7 4 4 3 3 4 9 12 12 17 19 14 11 13 14 14 17 17 16 16 16 15 16 15 14 13
18 19 20 21 21 22 23 23 22 22 22 22 22 23 23 23 23 22 22 23 24 24 25 26 29 34 36 33 29 22 18 14 10 9 8 7 9 8 5 4 3 3 4 6 9 11 13 13 10 11 14 16 18 20 19 17 17 16 15 15 14 13 12
18 18 20 21 21 22 23 23 23 23 22 22 22 22 23 23 23 23 22 23 24 24 24 24 27 31 34 35 33 29 23 18 12 9 8 9 10 10 8 8 7 5 5 6 8 9 10 11 13 17 18 19 20 19 17 16 15 14 14 14 13 13 12
18 18 20 21 21 22 22 23 23 23 23 22 22 22 22 22 23 23 23 22 22 24 25 25 27 28 29 31 33 32 30 27 22 18 17 16 15 14 13 13 13 12 10 10 11 13 17 19 21 23 23 21 18 14 13 14 13 12 13 13 12 12 12
Wind_Direction
263 265 262 263 270 271 264 259 257 258 257 254 252 250 252 252 250 249 248 248 248 243 233 227 225 226 229 229 226 224 220 217 217 216 216 213 211 214 218 216 212 204 197 200 201 194 237 239 219 220 217 211 213 218 215 217 223 201 174 180 187 179 173
271 265 262 269 275 272 266 260 257 258 257 253 250 250 249 247 247 248 247 249 247 243 238 234 230 224 225 229 225 219 215 215 216 218 219 220 221 218 209 209 213 210 210 223 222 205 226 242 222 206 200 202 213 221 218 218 221 200 178 183 192 186 177
281 274 271 269 265 264 265 263 259 258 258 255 251 249 247 244 244 246 247 248 246 243 241 239 235 226 225 225 219 214 212 214 215 217 220 223 225 220 210 207 210 210 211 228 234 217 221 235 240 229 198 192 204 217 215 215 217 200 186 191 200 194 184
298 287 278 273 271 273 274 272 264 258 257 256 254 252 247 244 243 244 245 244 244 242 238 235 232 227 225 220 214 211 209 210 211 215 219 222 221 224 222 214 207 207 207 215 223 214 210 217 229 236 209 197 197 203 206 208 213 204 190 196 204 197 188
312 306 294 284 281 280 278 277 271 262 258 256 255 256 252 246 242 241 242 242 243 241 234 231 228 222 219 214 212 210 207 207 210 210 215 219 220 221 221 216 213 212 212 218 223 212 207 212 221 231 217 205 201 201 201 201 210 209 196 199 206 197 189
316 312 307 300 295 287 278 275 274 269 264 260 261 260 258 254 246 241 240 238 240 240 232 229 226 219 213 206 205 205 202 204 207 206 211 219 222 218 214 215 218 217 216 222 227 221 215 216 220 226 227 224 213 204 200 195 203 210 204 209 212 198 189
320 316 310 305 303 300 293 287 282 277 270 267 267 266 264 262 252 246 242 237 238 239 233 228 222 217 212 206 204 201 199 202 207 209 212 216 219 217 211 209 213 217 220 223 225 225 222 217 216 212 204 220 230 215 198 193 198 202 206 214 216 198 189
327 322 315 307 302 298 295 294 290 283 277 272 271 270 270 267 259 253 248 242 240 238 233 227 218 213 212 210 208 203 198 200 205 209 211 211 213 216 214 210 213 218 221 223 224 224 219 214 215 213 194 187 221 220 199 194 200 204 206 208 206 194 190
331 325 317 312 310 304 295 288 284 281 279 274 270 269 268 267 265 260 251 243 240 236 232 227 219 212 211 211 210 204 200 200 203 207 209 206 208 214 213 213 218 220 220 224 226 225 220 214 212 212 201 186 193 211 201 190 199 217 216 204 194 196 197
330 325 320 316 314 309 301 293 286 281 278 273 269 269 267 266 267 265 255 246 240 234 228 224 220 215 212 212 210 205 202 201 203 207 208 205 207 208 206 211 220 220 218 221 224 225 223 218 212 208 206 200 198 207 205 191 195 218 218 207 195 199 197
329 326 323 320 315 309 304 300 295 289 284 277 272 271 268 264 265 263 256 247 241 237 229 224 223 219 212 212 211 207 203 202 202 204 208 211 213 209 205 211 217 217 219 223 226 229 225 219 217 214 215 211 205 205 194 180 201 208 209 212 207 196 186
333 331 329 326 321 312 305 302 300 296 291 284 278 275 271 265 261 259 257 252 245 240 232 226 226 221 215 216 216 210 205 203 202 203 206 210 212 208 206 210 211 212 221 225 224 223 217 216 220 220 218 212 206 205 191 167 193 211 210 215 211 191 177
336 335 334 331 326 317 310 307 304 302 298 289 282 279 278 272 263 258 258 255 248 239 227 223 229 228 222 224 225 217 207 204 204 205 207 210 212 209 207 210 210 212 216 218 218 217 212 214 222 224 219 211 204 200 199 193 181 209 212 208 206 193 180
339 339 338 335 332 326 320 314 307 306 305 297 289 285 282 279 273 267 262 255 248 233 220 219 226 230 226 226 229 225 213 208 208 208 209 213 215 213 211 210 208 210 211 208 210 216 216 216 221 224 221 215 203 187 190 200 190 201 218 208 210 203 182
342 341 341 340 338 333 328 322 312 308 307 302 299 296 291 287 285 281 274 265 252 230 216 218 224 226 224 224 228 227 219 216 215 212 212 216 217 214 213 212 209 211 211 206 207 213 217 218 218 219 217 216 208 180 178 191 189 189 206 204 214 210 181
347 346 345 344 342 338 332 327 321 313 306 304 303 301 298 294 290 286 281 272 260 238 223 226 227 226 224 226 230 226 219 221 220 216 216 217 220 217 211 209 208 210 210 207 207 212 217 218 218 220 218 216 214 192 184 193 188 187 195 193 211 214 189
351 350 348 346 344 342 337 331 327 321 313 308 307 306 302 298 293 284 272 269 268 255 239 235 234 231 227 228 232 227 218 220 220 219 219 218 220 220 214 211 209 210 211 207 206 211 214 216 217 220 220 216 211 194 188 194 191 191 194 187 214 219 191
355 352 350 349 346 346 345 340 335 332 326 319 316 316 309 301 295 282 266 263 269 260 248 247 245 239 234 231 233 230 221 215 216 217 218 219 221 220 216 216 213 211 211 208 209 211 210 215 219 220 220 217 211 196 186 190 196 199 195 191 220 225 185
357 354 351 349 347 347 348 346 343 341 340 335 328 326 322 310 295 280 269 263 262 254 249 252 251 246 245 239 233 232 224 212 212 216 216 219 222 222 219 218 217 212 207 207 213 216 212 214 219 222 223 218 207 191 176 179 192 199 200 198 208 212 190
358 356 353 351 350 349 349 350 350 348 349 350 345 341 339 331 313 287 277 271 264 262 257 254 254 257 261 259 245 238 230 217 213 214 215 218 220 222 220 218 217 214 209 209 214 217 217 217 219 225 229 220 210 200 175 175 185 191 199 204 200 204 200
0 359 357 354 354 353 351 351 354 355 356 358 356 353 350 349 349 345 323 300 284 282 275 266 269 270 270 271 261 247 234 222 216 214 215 218 218 219 221 221 219 217 214 212 212 212 216 219 219 224 219 184 200 212 188 178 186 189 194 199 199 208 206
3 2 0 358 357 356 355 353 355 358 360 0 0 360 357 356 2 9 1 345 330 310 295 282 278 274 270 273 272 261 243 225 218 218 217 218 219 218 222 224 221 220 217 213 211 209 212 217 214 209 190 163 181 197 183 177 188 191 189 193 207 211 201
4 4 3 2 360 359 359 357 356 358 360 1 3 4 5 4 6 14 15 9 7 1 334 301 277 269 267 270 273 277 273 251 227 221 220 219 220 219 220 220 217 220 217 213 214 212 213 219 214 207 202 193 193 190 179 176 184 189 193 198 210 210 195
5 5 4 4 3 2 1 1 0 0 1 3 5 7 10 9 8 12 18 18 18 21 12 340 299 276 270 271 268 273 284 276 250 235 226 221 221 218 217 216 214 218 219 217 217 215 214 217 217 212 204 196 195 190 180 179 183 188 197 198 198 204 200
6 5 4 4 5 4 4 4 3 3 3 4 6 9 11 12 10 10 13 18 16 10 4 356 332 301 285 283 277 267 273 277 270 262 247 231 227 221 218 216 210 214 220 217 215 215 216 216 213 209 201 194 199 199 193 195 193 191 198 201 197 200 202
7 6 5 4 5 6 6 6 5 5 4 4 6 9 11 13 12 10 9 12 12 3 354 350 341 324 306 294 284 271 267 270 273 273 265 252 239 226 219 215 209 212 218 214 209 209 212 215 213 208 202 199 202 202 199 200 197 194 200 208 207 208 209
8 7 6 5 6 7 7 7 7 6 6 6 6 8 9 11 12 12 9 8 9 3 351 347 345 334 322 309 293 278 271 269 270 273 271 268 260 242 223 214 211 215 215 208 206 205 200 204 210 207 201 200 201 200 198 198 199 200 204 209 208 210 209
8 7 6 6 7 7 7 8 8 7 7 8 9 9 9 9 10 13 11 9 11 8 355 349 348 340 328 318 303 288 280 275 273 272 272 275 275 264 243 227 219 218 218 209 202 202 198 190 191 195 196 195 194 194 196 199 203 203 204 207 209 207 202
10 9 8 7 6 6 6 7 7 7 6 8 10 10 11 11 9 10 13 13 14 12 5 358 354 349 338 326 312 301 295 288 281 276 274 276 279 275 262 246 235 232 231 220 202 200 199 185 178 189 191 179 165 172 187 198 202 204 206 211 217 213 207
10 10 10 10 8 6 6 6 5 6 6 7 9 9 10 12 11 9 12 14 13 13 11 6 1 357 349 339 328 317 309 302 292 283 277 278 282 281 267 242 230 230 234 229 211 204 200 189 187 191 182 165 149 163 189 199 199 203 210 215 221 222 218
9 10 11 12 11 8 8 7 5 5 5 5 6 7 7 9 12 11 11 12 11 11 12 9 7 5 0 352 344 331 320 313 306 299 288 279 273 264 251 241 227 223 227 227 219 209 201 197 198 189 173 167 166 164 179 195 192 192 201 206 211 218 217
10 10 11 11 11 10 10 10 9 7 8 7 5 6 5 6 10 12 11 11 9 10 12 11 10 9 6 2 356 345 332 320 314 317 305 283 269 230 296 272 241 228 230 217 209 204 201 200 200 184 172 176 176 160 160 178 179 170 173 173 169 174 176
13 13 12 11 11 11 10 10 10 10 12 12 9 9 8 5 7 10 12 13 12 10 11 12 11 11 10 7 4 357 348 334 324 329 331 318 34 66 25 324 286 118 168 186 191 195 198 198 193 178 178 180 171 154 148 151 153 148 144 140 134 132 135
16 14 14 13 13 13 11 10 10 9 10 12 12 12 12 10 9 9 11 14 14 11 11 12 12 15 16 14 10 6 3 356 341 334 341 10 48 48 19 6 29 72 132 172 186 191 195 198 196 187 188 182 161 147 141 137 138 136 131 128 126 122 121
17 14 14 15 14 15 14 11 12 10 8 9 12 13 13 12 11 10 10 11 12 10 9 11 15 20 25 25 22 19 14 9 359 346 348 10 23 26 35 49 50 66 109 153 171 179 190 197 185 167 170 166 151 142 137 133 134 134 130 129 128 123 119
17 15 15 15 15 16 16 13 12 13 10 9 9 11 13 13 12 11 9 9 12 12 10 11 15 21 28 32 34 35 33 29 24 23 32 38 34 37 64 90 93 89 99 116 126 133 142 141 129 128 138 146 144 138 134 134 137 139 138 134 130 125 119
17 17 17 17 17 18 18 15 14 13 13 11 9 10 11 11 11 12 10 9 11 13 14 15 18 22 28 34 38 41 42 44 46 49 54 58 56 54 67 89 101 104 105 107 109 110 111 112 114 118 124 131 134 131 135 141 142 138 133 127 122 116 108